SL-16 DEB, 22437

Orbit data source: Space-Track

SL-16 DEB, 22437 is space debris in LEO originally from a launch on Fri, 25 Dec 1992 UTC launched from the Tyuratam Missile And Space Complex (TTMTR). Debris objects in space refer to the collection of defunct objects orbiting the Earth. Examples of debris include non-operational satellites, rocket bodies, and fragments generated from explosions, collisions, or faulty payload assembly.

Loading next visibility...
Identifier
22437, 1992-093EE
Orbit
LEO
Country
Flag of CISCIS
Related business
Manufacturer
Unknown
Mission
Spacecraft
Bus & Motor
Unknown
Mass
Unknown
Launch date (UTC)
1992-12-25 (33 years ago)
Launch vehicle
Unknown
Launch site
Tyuratam Missile And Space Complex (TTMTR)
Object type
Payload
Rocket body
Debris
Shape & HBR
Unknown shape, 0.1 m
Radar Cross Section
Medium (>0.1 m² and <1 m²)

Expand to show TLE details & history
Last TLE update: 2 days ago

TLE from 2 days ago
0 SL-16 DEB
1 22437U 92093EE  26171.28267191  .00002012  00000-0  47180-3 0  9992
2 22437  71.3304 123.1079 0034952 188.5571 171.4984 14.55342100749367
Epoch: 2026-06-20T06:47Z
TLE epoch observation values (Epoch: 2026-06-20T06:47:02.853Z)
Latitude
Longitude
112.84649°
Altitude
735.223 km
Speed
7.475 km/s
True Right ascension
08h 12m 25s
True Declination
0° 00' 00"
Sunlit
Object was in daylight at epoch
Visualization orbit readout
Latitude
Unknown
Longitude
Unknown
Altitude
Unknown
Speed
Unknown
Apparent Right ascension
Unknown
Apparent Declination
Unknown
Sunlit
N/A
Visualization observer readout
Local Sidereal Time
05:36:28
Azimuth
Unknown
Elevation
Unknown
Doppler factor
Unknown
Orbital elements
Apogee altitude
730.867 km
Perigee altitude
681.346 km
Semi-major axis
7,084.244 km
Eccentricity
0.0035
Inclination
71.3304°
RAAN
123.1079°
Arg. of periapsis
188.5571°
True anomaly
171.55736°
Mean anomaly
171.4984°
Eccentric anomaly
171.5279°
Mean motion
3.64001 °/min
Orbital period
98.9 mins
BSTAR
0.0004718
Loading maneuver chart data...
Computing Atmospheric mass density...
Loading historical data...
Loading historical data...
Loading historical data...
Loading historical data...
Loading historical data...
Loading historical data...
Loading historical data...

Documentation

Showing up to 5 results
|